{"data":{"norad_id":62405,"intl_designator":"2024-247AE","name":"BANDWAGON-2 OBJECT AE","alt_names":[],"object_type":"PAYLOAD","status":"ACTIVE","operator":null,"country":"TBD","launch_date":"2024-12-21","launch_site_code":"AFWTR","launch_vehicle":null,"mission":null,"orbit_class":"UNKNOWN","rcs_meters":null,"size_class":null,"mass_kg":null,"dimensions":null,"purposes":[],"wikipedia_slug":null,"has_3d_model":false,"image_url":null,"decayed_at":null,"tle_current":{"epoch":"2026-09-22T09:33:57.181536Z","epoch_age_seconds":148196,"freshness":"FRESH","line1":"1 62405U 24247AE  26265.39857849  .00292375  00000+0  10488-2 0  9990","line2":"2 62405  44.9685  29.4925 0015939 318.8494  41.1208 15.87072499 98320","mean_motion":15.87072499,"eccentricity":0.0015939,"inclination_deg":44.9685,"raan_deg":29.4925,"arg_perigee_deg":318.8494,"mean_anomaly_deg":41.1208,"bstar":0.0010488,"rev_number":9832,"period_min":90.733095111114,"perigee_km":299.83442373058,"apogee_km":321.15644620677,"semimajor_km":6688.6324349687,"source":"CELESTRAK","updated_at":"2026-09-23T09:00:21.397704Z"}}}